Time,TemperatureF,DewpointF,PressureIn,WindDirection,WindDirectionDegrees,WindSpeedMPH,WindSpeedGustMPH,Humidity,HourlyPrecipIn,Conditions,Clouds,dailyrainin,SolarRadiationWatts/m^2,SoftwareType,DateUTC
2013-09-05 00:01:00,57.0,53.0,-100.00,ESE,122,0.0,4.0,85,0.00,,,0.00,15.000000,,2013-09-05 07:01:00,
2013-09-05 00:12:00,57.0,53.0,-100.00,ESE,122,0.0,4.0,85,0.00,,,0.00,15.000000,,2013-09-05 07:12:00,
2013-09-05 00:42:00,58.0,55.0,-100.00,NNW,335,0.0,5.0,90,0.00,,,-99.99,14.000000,,2013-09-05 07:42:00,
2013-09-05 00:52:00,58.0,55.0,-100.00,NNW,335,0.0,5.0,90,0.00,,,-99.99,14.000000,,2013-09-05 07:52:00,
2013-09-05 01:03:00,58.0,55.0,-100.00,NNW,335,0.0,5.0,90,0.00,,,-99.99,14.000000,,2013-09-05 08:03:00,
2013-09-05 01:12:00,58.0,55.0,-100.00,NNW,335,0.0,5.0,90,0.00,,,-99.99,14.000000,,2013-09-05 08:12:00,
2013-09-05 01:42:00,58.0,56.0,-100.00,NNW,339,0.0,7.0,92,0.00,,,0.00,14.000000,,2013-09-05 08:42:00,
2013-09-05 01:52:00,58.0,56.0,-100.00,NNW,339,0.0,7.0,92,0.00,,,0.00,14.000000,,2013-09-05 08:52:00,
2013-09-05 02:02:00,58.0,56.0,-100.00,NNW,339,0.0,7.0,92,0.00,,,0.00,14.000000,,2013-09-05 09:02:00,
2013-09-05 02:11:00,58.0,56.0,-100.00,NNW,339,0.0,7.0,92,0.00,,,0.00,14.000000,,2013-09-05 09:11:00,
2013-09-05 02:43:00,57.0,55.0,-100.00,NNW,340,0.0,5.0,94,0.00,,,0.00,13.000000,,2013-09-05 09:43:00,
2013-09-05 02:53:00,57.0,55.0,-100.00,NNW,340,0.0,5.0,94,0.00,,,0.00,13.000000,,2013-09-05 09:53:00,
2013-09-05 03:03:00,57.0,55.0,-100.00,NNW,340,0.0,5.0,94,0.00,,,0.00,13.000000,,2013-09-05 10:03:00,
2013-09-05 03:12:00,57.0,55.0,-100.00,NNW,340,0.0,5.0,94,0.00,,,0.00,13.000000,,2013-09-05 10:12:00,
2013-09-05 03:43:00,55.0,54.0,-100.00,North,359,0.0,6.0,97,0.00,,,-99.99,13.000000,,2013-09-05 10:43:00,
2013-09-05 03:53:00,55.0,54.0,-100.00,North,359,0.0,6.0,97,0.00,,,-99.99,13.000000,,2013-09-05 10:53:00,
2013-09-05 04:03:00,55.0,54.0,-100.00,North,359,0.0,6.0,97,0.00,,,-99.99,13.000000,,2013-09-05 11:03:00,
2013-09-05 04:11:00,55.0,54.0,-100.00,North,359,0.0,6.0,97,0.00,,,-99.99,13.000000,,2013-09-05 11:11:00,
2013-09-05 04:43:00,54.0,53.0,-100.00,WNW,292,0.0,4.0,98,0.00,,,0.00,13.000000,,2013-09-05 11:43:00,
2013-09-05 04:52:00,54.0,53.0,-100.00,WNW,292,0.0,4.0,98,0.00,,,0.00,13.000000,,2013-09-05 11:52:00,
2013-09-05 05:01:00,54.0,53.0,-100.00,WNW,292,0.0,4.0,98,0.00,,,0.00,13.000000,,2013-09-05 12:01:00,
2013-09-05 05:12:00,54.0,53.0,-100.00,WNW,292,0.0,4.0,98,0.00,,,0.00,13.000000,,2013-09-05 12:12:00,
2013-09-05 05:42:00,53.0,51.0,-100.00,NW,310,0.0,4.0,94,0.00,,,0.00,12.000000,,2013-09-05 12:42:00,
2013-09-05 05:52:00,53.0,51.0,-100.00,NW,310,0.0,4.0,94,0.00,,,0.00,12.000000,,2013-09-05 12:52:00,
2013-09-05 06:01:00,53.0,51.0,-100.00,NW,310,0.0,4.0,94,0.00,,,0.00,12.000000,,2013-09-05 13:01:00,
2013-09-05 06:12:00,53.0,51.0,-100.00,NW,310,0.0,4.0,94,0.00,,,0.00,12.000000,,2013-09-05 13:12:00,
2013-09-05 13:43:00,61.0,58.0,-100.00,North,358,0.0,5.0,91,0.00,,,0.00,129.000000,,2013-09-05 20:43:00,
2013-09-05 13:52:00,61.0,58.0,-100.00,North,358,0.0,5.0,91,0.00,,,0.00,129.000000,,2013-09-05 20:52:00,
2013-09-05 14:02:00,61.0,58.0,-100.00,North,358,0.0,5.0,91,0.00,,,0.00,129.000000,,2013-09-05 21:02:00,
2013-09-05 14:11:00,61.0,58.0,-100.00,North,358,0.0,5.0,91,0.00,,,0.00,129.000000,,2013-09-05 21:11:00,
2013-09-05 14:44:00,57.0,56.0,-100.00,SW,235,2.0,9.0,98,0.20,,,0.20,29.000000,,2013-09-05 21:44:00,
2013-09-05 14:54:00,57.0,56.0,-100.00,SW,235,2.0,9.0,98,0.20,,,0.20,29.000000,,2013-09-05 21:54:00,
2013-09-05 15:04:00,57.0,56.0,-100.00,SW,235,2.0,9.0,98,0.20,,,0.20,29.000000,,2013-09-05 22:04:00,
2013-09-05 15:13:00,57.0,56.0,-100.00,SW,235,2.0,9.0,98,0.20,,,0.20,29.000000,,2013-09-05 22:13:00,
2013-09-05 15:43:00,54.0,53.0,-100.00,WSW,238,4.0,15.0,97,0.44,,,0.64,22.000000,,2013-09-05 22:43:00,
2013-09-05 15:53:00,54.0,53.0,-100.00,WSW,238,4.0,15.0,97,0.44,,,0.64,22.000000,,2013-09-05 22:53:00,
2013-09-05 16:02:00,54.0,53.0,-100.00,WSW,238,4.0,15.0,97,0.44,,,0.64,22.000000,,2013-09-05 23:02:00,
2013-09-05 16:12:00,54.0,53.0,-100.00,WSW,238,4.0,15.0,97,0.44,,,0.64,22.000000,,2013-09-05 23:12:00,
2013-09-05 17:52:00,55.0,46.0,-100.00,SSW,195,0.0,5.0,71,0.04,,,0.93,32.000000,,2013-09-06 00:52:00,
2013-09-05 18:01:00,55.0,46.0,-100.00,SSW,195,0.0,5.0,71,0.04,,,0.93,32.000000,,2013-09-06 01:01:00,
2013-09-05 18:11:00,55.0,46.0,-100.00,SSW,195,0.0,5.0,71,0.04,,,0.93,32.000000,,2013-09-06 01:11:00,
2013-09-05 18:42:00,54.0,46.0,-100.00,SSW,197,0.0,7.0,75,0.03,,,-99.99,48.000000,,2013-09-06 01:42:00,
2013-09-05 18:52:00,54.0,46.0,-100.00,SSW,197,0.0,7.0,75,0.03,,,-99.99,48.000000,,2013-09-06 01:52:00,
2013-09-05 19:02:00,54.0,46.0,-100.00,SSW,197,0.0,7.0,75,0.03,,,-99.99,48.000000,,2013-09-06 02:02:00,
2013-09-05 19:11:00,54.0,46.0,-100.00,SSW,197,0.0,7.0,75,0.03,,,-99.99,48.000000,,2013-09-06 02:11:00,
2013-09-05 19:42:00,53.0,50.0,-100.00,WNW,298,0.0,7.0,88,0.12,,,1.08,41.000000,,2013-09-06 02:42:00,
2013-09-05 19:52:00,53.0,50.0,-100.00,WNW,298,0.0,7.0,88,0.12,,,1.08,41.000000,,2013-09-06 02:52:00,
2013-09-05 20:02:00,53.0,50.0,-100.00,WNW,298,0.0,7.0,88,0.12,,,1.08,41.000000,,2013-09-06 03:02:00,
2013-09-05 20:11:00,53.0,50.0,-100.00,WNW,298,0.0,7.0,88,0.12,,,1.08,41.000000,,2013-09-06 03:11:00,
2013-09-05 20:44:00,53.0,47.0,-100.00,SSW,207,1.0,8.0,81,0.11,,,1.19,13.000000,,2013-09-06 03:44:00,
2013-09-05 20:55:00,53.0,47.0,-100.00,SSW,207,1.0,8.0,81,0.11,,,1.19,13.000000,,2013-09-06 03:55:00,
2013-09-05 21:04:00,53.0,47.0,-100.00,SSW,207,1.0,8.0,81,0.11,,,1.19,13.000000,,2013-09-06 04:04:00,
2013-09-05 21:13:00,53.0,47.0,-100.00,SSW,207,1.0,8.0,81,0.11,,,1.19,13.000000,,2013-09-06 04:13:00,
2013-09-05 21:44:00,54.0,47.0,-100.00,South,191,4.0,8.0,76,0.05,,,1.24,12.000000,,2013-09-06 04:44:00,
2013-09-05 21:54:00,54.0,47.0,-100.00,South,191,4.0,8.0,76,0.05,,,1.24,12.000000,,2013-09-06 04:54:00,
2013-09-05 22:03:00,54.0,47.0,-100.00,South,191,4.0,8.0,76,0.05,,,1.24,12.000000,,2013-09-06 05:03:00,
2013-09-05 22:12:00,54.0,47.0,-100.00,South,191,4.0,8.0,76,0.05,,,1.24,12.000000,,2013-09-06 05:12:00,
2013-09-05 22:43:00,54.0,50.0,-100.00,South,191,6.0,11.0,87,0.05,,,1.29,12.000000,,2013-09-06 05:43:00,
2013-09-05 22:52:00,54.0,50.0,-100.00,South,191,6.0,11.0,87,0.05,,,1.29,12.000000,,2013-09-06 05:52:00,
2013-09-05 23:02:00,54.0,50.0,-100.00,South,191,6.0,11.0,87,0.05,,,1.29,12.000000,,2013-09-06 06:02:00,
2013-09-05 23:11:00,54.0,50.0,-100.00,South,191,6.0,11.0,87,0.05,,,1.29,12.000000,,2013-09-06 06:11:00,
2013-09-05 23:42:00,54.0,50.0,-100.00,South,189,5.0,9.0,87,0.07,,,1.36,12.000000,,2013-09-06 06:42:00,
2013-09-05 23:53:00,54.0,50.0,-100.00,South,189,5.0,9.0,87,0.07,,,1.36,12.000000,,2013-09-06 06:53:00,